Terminal Aerodrome Forecast
Issued by NWS

Home | Current Version | Previous Version | Text Only | Print | Product List | Glossary On
Versions: 1 2 3 4 5 6 7 8 9 10 11 12 13 14 15 16 17 18 19 20 21 22 23 24 25 26 27 28 29 30
155
FTUS45 KBYZ 092323
TAFLVM
TAF
KLVM 092323Z 1000/1024 26012G20KT P6SM FEW200
     FM100400 24025G35KT P6SM FEW200
     FM100800 24035G45KT P6SM FEW200
     FM102000 24020G35KT P6SM FEW200=

USA.gov is the U.S. government's official web portal to all federal, state and local government web resources and services.